West Palm Beach, FL

7:38 PM EST on November 18, 2019 (GMT -0500)
Palm Beach International

Weather History for KPBI - September, 2019

Change the Weather History Date:

Friday, September 6, 2019

  Actual Average Record
Temperature  
Mean Temperature 86 °F 82 °F  
Max Temperature 93 °F 89 °F 95 °F (1963)
Min Temperature 79 °F 75 °F 65 °F (1934)
Degree Days  
Heating Degree Days 0 0  
Month to date heating degree days 0 0  
Since 1 July heating degree days 0 0  
Cooling Degree Days 21 17  
Month to date cooling degree days 112 102  
Year to date cooling degree days 3278 2808  
Growing Degree Days 36 (Base 50)    
Moisture  
Dew Point 75 °F    
Average Humidity 73    
Maximum Humidity 97    
Minimum Humidity 49    
Precipitation  
Precipitation T in 0.28 in 2.73 in (1931)
Month to date precipitation 0.09 1.70  
Year to date precipitation 44.05 42.42  
Snow  
Snow 0.00 in - - ()
Month to date snowfall 0.0  
Since 1 July snowfall 0.0  
Since 1 September snowfall 0.0  
Snow Depth 0.00 in    
Sea Level Pressure  
Sea Level Pressure 29.94 in    
Wind  
Wind Speed 9 mph (WSW)    
Max Wind Speed 16 mph    
Max Gust Speed 22 mph    
Visibility 10 miles    
Events Thunderstorm    
T = Trace of Precipitation, MM = Missing Value Source: NWS Daily Summary

Daily Weather History Graph

Daily Weather History Graph

Search for Another Location

Airport or City:

Astronomy

Sep. 06, 2019 Rise Set
Actual Time 7:02 AM EDT 7:35 PM EDT
Civil Twilight 6:38 AM EDT 7:58 PM EDT
Nautical Twilight 6:11 AM EDT 8:25 PM EDT
Astronomical Twilight 5:43 AM EDT 8:53 PM EDT
Moon 2:27 PM EDT (9/6) 12:30 AM EDT (9/6)
Length of Visible Light 13h 19m
Length of Day
12h 33m
First Quarter, 55% of the Moon is Illuminated
Sep 6
First Quarter
Sep 14
Full
Sep 21
Last Quarter
Sep 28
New
Oct 5
First Quarter

Hourly Weather History & Observations

Time (EDT) Temp. Heat Index Dew Point Humidity Pressure Visibility Wind Dir Wind Speed Gust Speed Precip Events Conditions
12:53 AM 81.0 °F 87.3 °F 75.9 °F 85% 29.96 in 10.0 mi WSW 8.1 mph - N/A   Clear
1:53 AM 80.1 °F 85.4 °F 75.9 °F 87% 29.96 in 10.0 mi WSW 5.8 mph - N/A   Clear
2:53 AM 80.1 °F 85.4 °F 75.9 °F 87% 29.94 in 10.0 mi WSW 8.1 mph - N/A   Clear
4:53 AM 79.0 °F - 77.0 °F 94% 29.94 in 10.0 mi WSW 8.1 mph - N/A   Clear
5:53 AM 79.0 °F - 77.0 °F 94% 29.94 in 10.0 mi WSW 5.8 mph - N/A   Clear
6:53 AM 79.0 °F - 77.0 °F 94% 29.95 in 10.0 mi WSW 5.8 mph - N/A   Scattered Clouds
7:53 AM 80.1 °F 85.8 °F 77.0 °F 90% 29.96 in 10.0 mi WSW 5.8 mph - N/A   Mostly Cloudy
8:53 AM 82.0 °F 91.0 °F 78.1 °F 88% 29.97 in 10.0 mi WSW 8.1 mph - N/A   Mostly Cloudy
9:53 AM 82.9 °F 91.8 °F 77.0 °F 82% 29.98 in 10.0 mi WSW 12.7 mph - N/A   Mostly Cloudy
10:53 AM 87.1 °F 98.8 °F 77.0 °F 72% 29.98 in 10.0 mi West 16.1 mph 20.7 mph N/A   Scattered Clouds
11:53 AM 89.1 °F 98.0 °F 73.9 °F 61% 29.96 in 10.0 mi West 15.0 mph - N/A   Scattered Clouds
12:53 PM 90.0 °F 99.0 °F 73.9 °F 59% 29.95 in 10.0 mi WSW 10.4 mph - N/A   Scattered Clouds
1:53 PM 91.9 °F 101.3 °F 73.9 °F 55% 29.93 in 10.0 mi WSW 13.8 mph - N/A   Scattered Clouds
2:53 PM 93.0 °F 100.7 °F 72.0 °F 50% 29.91 in 10.0 mi SW 15.0 mph - N/A   Scattered Clouds
3:53 PM 93.0 °F 100.7 °F 72.0 °F 50% 29.89 in 10.0 mi SW 8.1 mph - N/A   Scattered Clouds
4:53 PM 93.0 °F 100.1 °F 71.1 °F 49% 29.88 in 10.0 mi WSW 11.5 mph 19.6 mph N/A   Scattered Clouds
5:53 PM 91.9 °F 98.4 °F 71.1 °F 50% 29.89 in 10.0 mi WSW 10.4 mph - N/A   Scattered Clouds
6:53 PM 89.1 °F 101.4 °F 77.0 °F 67% 29.89 in 10.0 mi South 8.1 mph - N/A   Mostly Cloudy
7:53 PM 87.1 °F 98.8 °F 77.0 °F 72% 29.89 in 10.0 mi South 6.9 mph - N/A   Scattered Clouds
8:53 PM 86.0 °F 96.0 °F 75.9 °F 72% 29.91 in 10.0 mi North 10.4 mph - N/A Thunderstorm Thunderstorm
9:43 PM 84.9 °F 92.1 °F 73.9 °F 69% 29.94 in 10.0 mi NE 5.8 mph - N/A   Scattered Clouds
9:53 PM 84.9 °F 92.1 °F 73.9 °F 69% 29.94 in 10.0 mi ENE 6.9 mph - N/A   Scattered Clouds
10:53 PM 82.9 °F 89.4 °F 73.9 °F 74% 29.94 in 10.0 mi WSW 6.9 mph - 0.00 in   Mostly Cloudy
11:53 PM 84.0 °F 92.6 °F 75.9 °F 76% 29.94 in 10.0 mi WSW 6.9 mph - N/A   Scattered Clouds